Time,TemperatureF,DewpointF,PressureIn,WindDirection,WindDirectionDegrees,WindSpeedMPH,WindSpeedGustMPH,Humidity,HourlyPrecipIn,Conditions,Clouds,dailyrainin,SoftwareType,DateUTC
2013-03-28 00:02:00,35.0,24.0,30.14,NNW,343,0.0,0.0,65,0.00,,,0.00,,2013-03-28 04:02:00,
2013-03-28 00:12:00,35.0,24.0,30.14,NNW,343,0.0,0.0,65,0.00,,,0.00,,2013-03-28 04:12:00,
2013-03-28 00:23:00,34.0,24.0,30.14,NNW,343,0.0,0.0,67,0.00,,,0.00,,2013-03-28 04:23:00,
2013-03-28 00:32:00,34.0,25.0,30.14,NNW,343,0.0,0.0,70,0.00,,,0.00,,2013-03-28 04:32:00,
2013-03-28 00:42:00,34.0,25.0,30.14,NNW,343,0.0,0.0,70,0.00,,,0.00,,2013-03-28 04:42:00,
2013-03-28 00:52:00,34.0,24.0,30.14,NNW,343,0.0,0.0,67,0.00,,,0.00,,2013-03-28 04:52:00,
2013-03-28 01:02:00,36.0,23.0,30.14,NNW,343,0.0,0.0,59,0.00,,,0.00,,2013-03-28 05:02:00,
2013-03-28 01:12:00,36.0,23.0,30.14,NNW,343,0.0,0.0,59,0.00,,,0.00,,2013-03-28 05:12:00,
2013-03-28 01:22:00,37.0,23.0,30.14,NNW,343,0.0,0.0,57,0.00,,,0.00,,2013-03-28 05:22:00,
2013-03-28 01:32:00,37.0,23.0,30.14,NNW,343,0.0,1.0,57,0.00,,,0.00,,2013-03-28 05:32:00,
2013-03-28 01:42:00,37.0,23.0,30.14,NNW,343,0.0,1.0,57,0.00,,,0.00,,2013-03-28 05:42:00,
2013-03-28 01:52:00,37.0,23.0,30.14,NW,317,0.0,0.0,57,0.00,,,0.00,,2013-03-28 05:52:00,
2013-03-28 02:02:00,37.0,23.0,30.13,NW,319,0.0,5.0,57,0.00,,,0.00,,2013-03-28 06:02:00,
2013-03-28 02:12:00,37.0,23.0,30.13,NW,319,0.0,5.0,57,0.00,,,0.00,,2013-03-28 06:12:00,
2013-03-28 02:22:00,37.0,23.0,30.13,NW,319,0.0,0.0,57,0.00,,,0.00,,2013-03-28 06:22:00,
2013-03-28 02:32:00,36.0,23.0,30.13,NW,320,0.0,2.0,59,0.00,,,0.00,,2013-03-28 06:32:00,
2013-03-28 02:42:00,36.0,23.0,30.13,NW,320,0.0,2.0,59,0.00,,,0.00,,2013-03-28 06:42:00,
2013-03-28 02:52:00,36.0,23.0,30.13,NW,320,0.0,3.0,59,0.00,,,0.00,,2013-03-28 06:52:00,
2013-03-28 03:02:00,36.0,23.0,30.13,NW,320,0.0,0.0,59,0.00,,,0.00,,2013-03-28 07:02:00,
2013-03-28 03:12:00,36.0,23.0,30.13,NW,320,0.0,0.0,59,0.00,,,0.00,,2013-03-28 07:12:00,
2013-03-28 03:22:00,36.0,23.0,30.12,NW,320,0.0,0.0,60,0.00,,,0.00,,2013-03-28 07:22:00,
2013-03-28 03:32:00,36.0,23.0,30.12,NW,320,0.0,0.0,60,0.00,,,0.00,,2013-03-28 07:32:00,
2013-03-28 03:42:00,36.0,23.0,30.12,NW,320,0.0,0.0,60,0.00,,,0.00,,2013-03-28 07:42:00,
2013-03-28 03:52:00,36.0,24.0,30.12,NW,320,0.0,0.0,61,0.00,,,0.00,,2013-03-28 07:52:00,
2013-03-28 04:02:00,35.0,24.0,30.12,NW,320,0.0,2.0,63,0.00,,,0.00,,2013-03-28 08:02:00,
2013-03-28 04:12:00,35.0,24.0,30.12,NW,320,0.0,2.0,63,0.00,,,0.00,,2013-03-28 08:12:00,
2013-03-28 04:21:00,34.0,23.0,30.11,NW,320,0.0,0.0,65,0.00,,,0.00,,2013-03-28 08:21:00,
2013-03-28 04:32:00,33.0,23.0,30.11,NW,320,0.0,0.0,67,0.00,,,0.00,,2013-03-28 08:32:00,
2013-03-28 04:42:00,33.0,23.0,30.11,NW,320,0.0,0.0,67,0.00,,,0.00,,2013-03-28 08:42:00,
2013-03-28 04:52:00,32.0,23.0,30.11,NW,320,0.0,0.0,70,0.00,,,0.00,,2013-03-28 08:52:00,
2013-03-28 05:02:00,32.0,24.0,30.11,NW,320,0.0,0.0,71,0.00,,,0.00,,2013-03-28 09:02:00,
2013-03-28 05:12:00,32.0,24.0,30.11,NW,320,0.0,0.0,71,0.00,,,0.00,,2013-03-28 09:12:00,
2013-03-28 05:22:00,32.0,24.0,30.12,NW,320,0.0,0.0,73,0.00,,,0.00,,2013-03-28 09:22:00,
2013-03-28 05:32:00,31.0,23.0,30.11,NW,320,0.0,0.0,73,0.00,,,0.00,,2013-03-28 09:32:00,
2013-03-28 05:42:00,31.0,23.0,30.11,NW,320,0.0,0.0,73,0.00,,,0.00,,2013-03-28 09:42:00,
2013-03-28 05:52:00,31.0,23.0,30.11,NW,320,0.0,0.0,73,0.00,,,0.00,,2013-03-28 09:52:00,
2013-03-28 06:03:00,31.0,24.0,30.11,NW,320,0.0,0.0,74,0.00,,,0.00,,2013-03-28 10:03:00,
2013-03-28 06:12:00,31.0,24.0,30.11,NW,320,0.0,0.0,74,0.00,,,0.00,,2013-03-28 10:12:00,
2013-03-28 06:22:00,31.0,24.0,30.11,NW,320,0.0,0.0,74,0.00,,,0.00,,2013-03-28 10:22:00,
2013-03-28 06:33:00,31.0,24.0,30.12,NW,320,0.0,0.0,75,0.00,,,0.00,,2013-03-28 10:33:00,
2013-03-28 06:42:00,31.0,24.0,30.12,NW,320,0.0,0.0,75,0.00,,,0.00,,2013-03-28 10:42:00,
2013-03-28 06:53:00,30.0,23.0,30.12,NW,320,0.0,0.0,76,0.00,,,0.00,,2013-03-28 10:53:00,
2013-03-28 07:02:00,31.0,24.0,30.12,NW,320,0.0,0.0,75,0.00,,,0.00,,2013-03-28 11:02:00,
2013-03-28 07:12:00,31.0,24.0,30.12,NW,320,0.0,0.0,75,0.00,,,0.00,,2013-03-28 11:12:00,
2013-03-28 07:23:00,31.0,24.0,30.12,NW,320,0.0,0.0,74,0.00,,,0.00,,2013-03-28 11:23:00,
2013-03-28 07:32:00,31.0,24.0,30.13,NW,320,0.0,0.0,76,0.00,,,0.00,,2013-03-28 11:32:00,
2013-03-28 07:42:00,31.0,24.0,30.13,NW,320,0.0,0.0,76,0.00,,,0.00,,2013-03-28 11:42:00,
2013-03-28 07:52:00,31.0,24.0,30.14,NW,320,0.0,0.0,76,0.00,,,0.00,,2013-03-28 11:52:00,
2013-03-28 08:02:00,31.0,24.0,30.14,NW,320,0.0,0.0,75,0.00,,,0.00,,2013-03-28 12:02:00,
2013-03-28 08:12:00,31.0,24.0,30.14,NW,320,0.0,0.0,75,0.00,,,0.00,,2013-03-28 12:12:00,
2013-03-28 08:22:00,32.0,24.0,30.14,NW,320,0.0,5.0,72,0.00,,,0.00,,2013-03-28 12:22:00,
2013-03-28 08:32:00,34.0,24.0,30.14,NW,312,0.0,3.0,67,0.00,,,0.00,,2013-03-28 12:32:00,
2013-03-28 08:42:00,34.0,24.0,30.14,NW,312,0.0,3.0,67,0.00,,,0.00,,2013-03-28 12:42:00,
2013-03-28 08:52:00,36.0,25.0,30.15,NW,317,0.0,9.0,64,0.00,,,0.00,,2013-03-28 12:52:00,
2013-03-28 09:02:00,37.0,25.0,30.15,West,263,2.0,3.0,61,0.00,,,0.00,,2013-03-28 13:02:00,
2013-03-28 09:12:00,37.0,25.0,30.15,West,263,2.0,3.0,61,0.00,,,0.00,,2013-03-28 13:12:00,
2013-03-28 09:22:00,39.0,26.0,30.15,NNW,332,0.0,9.0,59,0.00,,,0.00,,2013-03-28 13:22:00,
2013-03-28 09:32:00,40.0,26.0,30.16,NNW,340,2.0,10.0,58,0.00,,,0.00,,2013-03-28 13:32:00,
2013-03-28 09:42:00,40.0,26.0,30.16,NNW,340,2.0,10.0,58,0.00,,,0.00,,2013-03-28 13:42:00,
2013-03-28 09:52:00,42.0,27.0,30.16,NW,311,3.0,7.0,56,0.00,,,0.00,,2013-03-28 13:52:00,
2013-03-28 10:02:00,43.0,28.0,30.15,NNW,328,0.0,11.0,54,0.00,,,0.00,,2013-03-28 14:02:00,
2013-03-28 10:12:00,43.0,28.0,30.15,NNW,328,0.0,11.0,54,0.00,,,0.00,,2013-03-28 14:12:00,
2013-03-28 10:22:00,45.0,28.0,30.15,NNE,32,6.0,11.0,51,0.00,,,0.00,,2013-03-28 14:22:00,
2013-03-28 10:32:00,46.0,25.0,30.15,NNW,339,4.0,12.0,44,0.00,,,0.00,,2013-03-28 14:32:00,
2013-03-28 10:42:00,46.0,25.0,30.15,NNW,339,4.0,12.0,44,0.00,,,0.00,,2013-03-28 14:42:00,
2013-03-28 10:52:00,46.0,24.0,30.15,NNW,332,3.0,13.0,41,0.00,,,0.00,,2013-03-28 14:52:00,
2013-03-28 11:02:00,47.0,24.0,30.15,NW,315,1.0,9.0,40,0.00,,,0.00,,2013-03-28 15:02:00,
2013-03-28 11:12:00,47.0,24.0,30.15,NW,315,1.0,9.0,40,0.00,,,0.00,,2013-03-28 15:12:00,
2013-03-28 11:22:00,48.0,25.0,30.15,North,354,1.0,12.0,40,0.00,,,0.00,,2013-03-28 15:22:00,
2013-03-28 11:33:00,48.0,23.0,30.15,WNW,299,8.0,13.0,37,0.00,,,0.00,,2013-03-28 15:33:00,
2013-03-28 11:43:00,48.0,23.0,30.15,WNW,299,8.0,13.0,37,0.00,,,0.00,,2013-03-28 15:43:00,
2013-03-28 11:53:00,49.0,23.0,30.15,NNW,332,5.0,10.0,36,0.00,,,0.00,,2013-03-28 15:53:00,
2013-03-28 12:02:00,49.0,23.0,30.15,WNW,293,1.0,10.0,35,0.00,,,0.00,,2013-03-28 16:02:00,
2013-03-28 12:12:00,49.0,23.0,30.15,WNW,293,1.0,10.0,35,0.00,,,0.00,,2013-03-28 16:12:00,
2013-03-28 12:23:00,50.0,24.0,30.14,NW,318,5.0,13.0,36,0.00,,,0.00,,2013-03-28 16:23:00,
2013-03-28 12:32:00,51.0,24.0,30.14,NW,314,4.0,7.0,35,0.00,,,0.00,,2013-03-28 16:32:00,
2013-03-28 12:42:00,51.0,24.0,30.14,NW,314,4.0,7.0,35,0.00,,,0.00,,2013-03-28 16:42:00,
2013-03-28 12:52:00,51.0,24.0,30.13,North,352,4.0,6.0,35,0.00,,,0.00,,2013-03-28 16:52:00,
2013-03-28 13:02:00,52.0,23.0,30.13,NNE,14,1.0,7.0,32,0.00,,,0.00,,2013-03-28 17:02:00,
2013-03-28 13:12:00,52.0,23.0,30.13,NNE,14,1.0,7.0,32,0.00,,,0.00,,2013-03-28 17:12:00,
2013-03-28 13:22:00,52.0,25.0,30.12,NW,311,0.0,11.0,34,0.00,,,0.00,,2013-03-28 17:22:00,
2013-03-28 13:32:00,53.0,25.0,30.12,SW,222,2.0,7.0,34,0.00,,,0.00,,2013-03-28 17:32:00,
2013-03-28 13:42:00,53.0,25.0,30.12,SW,222,2.0,7.0,34,0.00,,,0.00,,2013-03-28 17:42:00,
2013-03-28 13:52:00,53.0,22.0,30.11,NW,310,0.0,17.0,30,0.00,,,0.00,,2013-03-28 17:52:00,
2013-03-28 14:02:00,53.0,26.0,30.11,WNW,298,1.0,9.0,35,0.00,,,0.00,,2013-03-28 18:02:00,
2013-03-28 14:12:00,53.0,26.0,30.11,WNW,298,1.0,9.0,35,0.00,,,0.00,,2013-03-28 18:12:00,
2013-03-28 14:22:00,54.0,24.0,30.11,NW,326,1.0,14.0,31,0.00,,,0.00,,2013-03-28 18:22:00,
2013-03-28 14:32:00,54.0,25.0,30.10,NNW,348,4.0,12.0,32,0.00,,,0.00,,2013-03-28 18:32:00,
2013-03-28 14:42:00,54.0,25.0,30.10,NNW,348,4.0,12.0,32,0.00,,,0.00,,2013-03-28 18:42:00,
2013-03-28 14:52:00,55.0,24.0,30.09,West,275,1.0,11.0,30,0.00,,,0.00,,2013-03-28 18:52:00,
2013-03-28 15:02:00,55.0,23.0,30.09,West,268,4.0,13.0,28,0.00,,,0.00,,2013-03-28 19:02:00,
2013-03-28 15:12:00,55.0,23.0,30.09,West,268,4.0,13.0,28,0.00,,,0.00,,2013-03-28 19:12:00,
2013-03-28 15:22:00,55.0,23.0,30.09,NNW,339,4.0,18.0,28,0.00,,,0.00,,2013-03-28 19:22:00,
2013-03-28 15:33:00,56.0,26.0,30.08,NW,307,3.0,11.0,31,0.00,,,0.00,,2013-03-28 19:33:00,
2013-03-28 15:42:00,56.0,26.0,30.08,NW,307,3.0,11.0,31,0.00,,,0.00,,2013-03-28 19:42:00,
2013-03-28 15:52:00,56.0,23.0,30.07,WNW,299,4.0,13.0,28,0.00,,,0.00,,2013-03-28 19:52:00,
2013-03-28 16:03:00,56.0,23.0,30.08,NNE,20,4.0,11.0,27,0.00,,,0.00,,2013-03-28 20:03:00,
2013-03-28 16:12:00,56.0,23.0,30.08,NNE,20,4.0,11.0,27,0.00,,,0.00,,2013-03-28 20:12:00,
2013-03-28 16:22:00,56.0,23.0,30.06,NW,312,0.0,11.0,28,0.00,,,0.00,,2013-03-28 20:22:00,
2013-03-28 16:32:00,57.0,23.0,30.06,WNW,295,3.0,11.0,27,0.00,,,0.00,,2013-03-28 20:32:00,
2013-03-28 16:42:00,57.0,23.0,30.06,WNW,295,3.0,11.0,27,0.00,,,0.00,,2013-03-28 20:42:00,
2013-03-28 16:53:00,58.0,24.0,30.06,NNW,345,2.0,5.0,27,0.00,,,0.00,,2013-03-28 20:53:00,
2013-03-28 17:02:00,57.0,22.0,30.06,NNW,336,3.0,11.0,25,0.00,,,0.00,,2013-03-28 21:02:00,
2013-03-28 17:12:00,57.0,22.0,30.06,NNW,336,3.0,11.0,25,0.00,,,0.00,,2013-03-28 21:12:00,
2013-03-28 17:22:00,57.0,22.0,30.06,NNW,340,3.0,9.0,25,0.00,,,0.00,,2013-03-28 21:22:00,
2013-03-28 17:33:00,57.0,22.0,30.06,NNW,333,0.0,11.0,26,0.00,,,0.00,,2013-03-28 21:33:00,
2013-03-28 17:43:00,57.0,22.0,30.06,NNW,333,0.0,11.0,26,0.00,,,0.00,,2013-03-28 21:43:00,
2013-03-28 17:53:00,56.0,23.0,30.07,NW,314,0.0,10.0,27,0.00,,,0.00,,2013-03-28 21:53:00,
2013-03-28 18:03:00,56.0,23.0,30.07,NNW,346,2.0,12.0,27,0.00,,,0.00,,2013-03-28 22:03:00,
2013-03-28 18:12:00,56.0,23.0,30.07,NNW,346,2.0,12.0,27,0.00,,,0.00,,2013-03-28 22:12:00,
2013-03-28 18:23:00,55.0,23.0,30.08,NNW,343,2.0,7.0,28,0.00,,,0.00,,2013-03-28 22:23:00,
2013-03-28 18:32:00,55.0,23.0,30.08,NNW,346,0.0,10.0,29,0.00,,,0.00,,2013-03-28 22:32:00,
2013-03-28 18:42:00,55.0,23.0,30.08,NNW,346,0.0,10.0,29,0.00,,,0.00,,2013-03-28 22:42:00,
2013-03-28 18:52:00,55.0,23.0,30.08,ENE,60,0.0,9.0,28,0.00,,,0.00,,2013-03-28 22:52:00,
2013-03-28 19:03:00,54.0,21.0,30.09,NW,325,2.0,15.0,27,0.00,,,0.00,,2013-03-28 23:03:00,
2013-03-28 19:12:00,54.0,21.0,30.09,NW,325,2.0,15.0,27,0.00,,,0.00,,2013-03-28 23:12:00,
2013-03-28 19:22:00,54.0,22.0,30.09,NNW,331,0.0,6.0,28,0.00,,,0.00,,2013-03-28 23:22:00,
2013-03-28 19:32:00,53.0,21.0,30.09,West,278,0.0,6.0,28,0.00,,,0.00,,2013-03-28 23:32:00,
2013-03-28 19:42:00,53.0,21.0,30.09,West,278,0.0,6.0,28,0.00,,,0.00,,2013-03-28 23:42:00,
2013-03-28 19:53:00,52.0,21.0,30.11,NNW,343,1.0,6.0,29,0.00,,,0.00,,2013-03-28 23:53:00,
2013-03-28 20:02:00,51.0,21.0,30.11,NNW,334,0.0,0.0,31,0.00,,,0.00,,2013-03-29 00:02:00,
2013-03-28 20:12:00,51.0,21.0,30.11,NNW,334,0.0,0.0,31,0.00,,,0.00,,2013-03-29 00:12:00,
2013-03-28 20:22:00,51.0,21.0,30.11,NNW,328,0.0,2.0,31,0.00,,,0.00,,2013-03-29 00:22:00,
2013-03-28 20:32:00,50.0,22.0,30.12,NNW,337,0.0,2.0,33,0.00,,,0.00,,2013-03-29 00:32:00,
2013-03-28 20:42:00,50.0,22.0,30.12,NNW,337,0.0,2.0,33,0.00,,,0.00,,2013-03-29 00:42:00,
2013-03-28 20:52:00,50.0,23.0,30.12,NNE,24,0.0,3.0,34,0.00,,,0.00,,2013-03-29 00:52:00,
2013-03-28 21:02:00,49.0,23.0,30.14,NNE,24,0.0,0.0,36,0.00,,,0.00,,2013-03-29 01:02:00,
2013-03-28 21:12:00,49.0,23.0,30.14,NNE,24,0.0,0.0,36,0.00,,,0.00,,2013-03-29 01:12:00,
2013-03-28 21:22:00,48.0,24.0,30.14,North,5,0.0,0.0,39,0.00,,,0.00,,2013-03-29 01:22:00,
2013-03-28 21:32:00,47.0,25.0,30.14,North,5,0.0,0.0,41,0.00,,,0.00,,2013-03-29 01:32:00,
2013-03-28 21:42:00,47.0,25.0,30.14,North,5,0.0,0.0,41,0.00,,,0.00,,2013-03-29 01:42:00,
2013-03-28 21:52:00,46.0,23.0,30.15,North,5,0.0,0.0,40,0.00,,,0.00,,2013-03-29 01:52:00,
2013-03-28 22:02:00,46.0,25.0,30.16,North,5,0.0,0.0,43,0.00,,,0.00,,2013-03-29 02:02:00,
2013-03-28 22:12:00,46.0,25.0,30.16,North,5,0.0,0.0,43,0.00,,,0.00,,2013-03-29 02:12:00,
2013-03-28 22:22:00,45.0,24.0,30.17,NNE,14,0.0,3.0,44,0.00,,,0.00,,2013-03-29 02:22:00,
2013-03-28 22:32:00,44.0,25.0,30.17,NNE,14,0.0,0.0,46,0.00,,,0.00,,2013-03-29 02:32:00,
2013-03-28 22:42:00,44.0,25.0,30.17,NNE,14,0.0,0.0,46,0.00,,,0.00,,2013-03-29 02:42:00,
2013-03-28 22:53:00,44.0,25.0,30.18,North,351,1.0,7.0,47,0.00,,,0.00,,2013-03-29 02:53:00,
2013-03-28 23:02:00,45.0,23.0,30.19,NNW,329,0.0,8.0,41,0.00,,,0.00,,2013-03-29 03:02:00,
2013-03-28 23:12:00,45.0,23.0,30.19,NNW,329,0.0,8.0,41,0.00,,,0.00,,2013-03-29 03:12:00,
2013-03-28 23:22:00,46.0,24.0,30.19,NNE,29,0.0,6.0,41,0.00,,,0.00,,2013-03-29 03:22:00,
2013-03-28 23:32:00,45.0,24.0,30.20,NNW,333,0.0,3.0,43,0.00,,,0.00,,2013-03-29 03:32:00,
2013-03-28 23:42:00,45.0,24.0,30.20,NNW,333,0.0,3.0,43,0.00,,,0.00,,2013-03-29 03:42:00,
2013-03-28 23:53:00,44.0,23.0,30.20,North,10,0.0,3.0,44,0.00,,,0.00,,2013-03-29 03:53:00,